STARLINK-1017, 44723

Orbit data source: Space-Track

STARLINK-1017, 44723 is a payload satellite owned by SpaceX/Seattle (US) in LEO that was launched on Mon, 11 Nov 2019 UTC via an FALCON 9 launch vehicle from the Air Force Eastern Test Range (AFETR). Payload-class satellites include a variety of spacecraft equipped with specific instruments for various scientific and technological missions. These include communications satellites like Starlink; space stations such as the ISS; scientific satellites like the Hubble; Earth observation satellites from companies like Planet Labs, Umbra, and HawkEye 360; GPS; miniature CubeSats for education and research; and military/defense satellites.

Loading next visibility...
Identifier
44723, 2019-074L
Orbit
LEO
Country
Flag of USUS
Related business
Manufacturer
SpaceX/Seattle
Mission
Partially operational Commercial Communications
Bus & Motor
STARLINK, Unknown motor
Mass
260 kg wet, ~248 kg dry
Launch date (UTC)
2019-11-11 (6 years ago)
Launch vehicle
FALCON 9
Launch site
Air Force Eastern Test Range (AFETR)
Object type
Payload
Rocket body
Debris
Shape & HBR
Box + 1 Pan, 10.1 m
Radar Cross Section
13.562 m², Large (>1 m²)

Expand to show TLE details & history
Last TLE update: 15 hours ago

TLE from 15 hours ago
0 STARLINK-1017
1 44723U 19074L   26111.89680675  .00039134  00000-0  14248-2 0  9992
2 44723  53.0492 331.5061 0003209 177.1315 182.9703 15.27858624355565
Epoch: 2026-04-21T21:31Z
TLE epoch observation values (Epoch: 2026-04-21T21:31:24.103Z)
Latitude
0.00005°
Longitude
158.68971°
Altitude
485.3 km
Speed
7.623 km/s
True Right ascension
22h 06m 01s
True Declination
0° 00' 00"
Sunlit
Object was in daylight at epoch
Visualization orbit readout
Latitude
Unknown
Longitude
Unknown
Altitude
Unknown
Speed
Unknown
Apparent Right ascension
Unknown
Apparent Declination
Unknown
Sunlit
N/A
Visualization observer readout
Local Sidereal Time
19:41:19
Azimuth
Unknown
Elevation
Unknown
Doppler factor
Unknown
Orbital elements
Apogee altitude
484.691 km
Perigee altitude
480.287 km
Semi-major axis
6,860.626 km
Eccentricity
0.00032
Inclination
53.0492°
RAAN
331.5061°
Arg. of periapsis
177.1315°
True anomaly
182.9684°
Mean anomaly
182.9703°
Eccentric anomaly
182.96935°
Mean motion
3.81942 °/min
Orbital period
94.26 mins
BSTAR
0.0014248
Loading maneuver chart data...
Computing Atmospheric mass density...

Documentation

Showing up to 5 results
|